Regional Weather Roundup
Issued by NWS

Home | Current Version | Previous Version | Graphics & Text | Print | Product List | Glossary On
Versions: 1 2 3 4 5 6 7 8 9 10 11 12 13 14 15 16 17 18 19 20 21 22 23 24 25 26 27 28 29 30 31 32 33 34 35 36 37 38 39 40 41 42 43 44 45 46 47 48 49 50
000
ASUS43 KOAX 201210
RWRNE

WEATHER ROUNDUP FOR NEBRASKA
NATIONAL WEATHER SERVICE OMAHA NE
700 AM CDT MON OCT 20 2014

NOTES: SATELLITE DATA IS BEING USED TO AUGMENT CLOUD COVER ABOVE
       12000 FEET.
       "FAIR" INDICATES FEW OR NO CLOUDS BELOW 12,000 FEET WITH NO
       SIGNIFICANT WEATHER AND/OR OBSTRUCTIONS TO VISIBILITY.

  * THESE STATIONS DO NOT REPORT WEATHER SUCH AS RAIN...SNOW OR FOG.

NEZ001>004-019>022-054>056-201300-
NEBRASKA PANHANDLE

CITY           SKY/WX    TMP DP  RH WIND       PRES   REMARKS
SCOTTSBLUFF    CLEAR     37  33  85 CALM      30.11S
6HR MIN TEMP:  36; 6HR MAX TEMP:  47;

ALLIANCE       CLEAR     32  29  88 CALM      30.11S
6HR MIN TEMP:  29; 6HR MAX TEMP:  36;

CHADRON        CLEAR     32  31  96 CALM      30.07S
6HR MIN TEMP:  32; 6HR MAX TEMP:  42;

KIMBALL        CLEAR     39  35  85 SW8       30.12S WCI  34
SIDNEY         CLEAR     38  35  89 W8        30.13S WCI  32
6HR MIN TEMP:  36; 6HR MAX TEMP:  42;

$$

NEZ057>060-069>072-079>082-201300-
SOUTHWEST NEBRASKA

CITY           SKY/WX    TMP DP  RH WIND       PRES   REMARKS
NORTH PLATTE   CLEAR     36  32  85 CALM      30.11R
6HR MIN TEMP:  34; 6HR MAX TEMP:  42;

IMPERIAL       CLEAR     38  33  82 W3        30.11S
6HR MIN TEMP:  38; 6HR MAX TEMP:  48;

LEXINGTON      CLEAR     38  36  89 NW6       30.10R WCI  34
MCCOOK         CLEAR     39  36  89 W7        30.10S WCI  34
6HR MIN TEMP:  38; 6HR MAX TEMP:  45;

OGALLALA       CLEAR     34  32  93 CALM      30.11S
$$

NEZ005>010-023>029-035>040-094-201300-
NORTH CENTRAL NEBRASKA

CITY           SKY/WX    TMP DP  RH WIND       PRES   REMARKS
VALENTINE      CLEAR     33  30  88 CALM      30.11R
6HR MIN TEMP:  32; 6HR MAX TEMP:  43;

AINSWORTH      CLEAR     37  33  83 W5        30.10S WCI  34
BROKEN BOW     CLEAR     37  33  85 CALM      30.09S
6HR MIN TEMP:  36; 6HR MAX TEMP:  43;

O`NEILL        CLEAR     42  37  83 NW3       30.09R
ORD            CLEAR     37  34  89 N5        30.08R WCI  33
6HR MIN TEMP:  36; 6HR MAX TEMP:  43;

THEDFORD       CLEAR     37  34  89 W3        30.11S
$$

NEZ041-046>049-061>064-073>077-083>087-201300-
SOUTH CENTRAL NEBRASKA

CITY           SKY/WX    TMP DP  RH WIND       PRES   REMARKS
GRAND ISLAND   CLEAR     43  39  86 NW3       30.08R
6HR MIN TEMP:  42; 6HR MAX TEMP:  48;

AURORA         CLEAR     42  41  94 NW5       30.07R
HASTINGS       CLEAR     46  40  79 CALM      30.06S
6HR MIN TEMP:  44; 6HR MAX TEMP:  51;

HEBRON         CLEAR     45  42  88 CALM      30.05R
HOLDREGE       FAIR      44  40  86 CALM      30.08S
KEARNEY *      CLEAR     43  37  81 W9        30.08S
YORK           CLEAR     45  41  87 N3        30.06R
$$

NEZ011>018-030>034-042>045-201300-
NORTHEAST NEBRASKA

CITY           SKY/WX    TMP DP  RH WIND       PRES   REMARKS
NORFOLK        CLEAR     40  36  86 NW3       30.08R
6HR MIN TEMP:  39; 6HR MAX TEMP:  50;

ALBION         CLEAR     38  34  86 NW5       30.08R WCI  34
BLAIR          CLEAR     50  44  79 N9        30.03R
COLUMBUS *     CLEAR     41  34  75 N5        30.08R
FREMONT        CLEAR     43  40  90 W5        30.05R
TEKAMAH        CLEAR     44  39  82 N6        30.05R
6HR MIN TEMP:  43; 6HR MAX TEMP:  49;

WAYNE          CLEAR     36  34  92 CALM      30.08R
$$

NEZ050>053-065>068-078-088>093-201300-
SOUTHEAST NEBRASKA

CITY           SKY/WX    TMP DP  RH WIND       PRES   REMARKS
LINCOLN        CLEAR     42  41  96 N5        30.06R
6HR MIN TEMP:  42; 6HR MAX TEMP:  54;

OMAHA EPPLEY   CLEAR     46  43  89 N8        30.05R
6HR MIN TEMP:  46; 6HR MAX TEMP:  56;

BEATRICE       CLEAR     40  39  97 W3        30.03S FOG
FALLS CITY     CLEAR     48  46  93 NW6       30.00R
6HR MIN TEMP:  48; 6HR MAX TEMP:  57;

NEBRASKA CITY  CLEAR     49  44  83 N6        30.02R
PLATTSMOUTH    CLEAR     47  44  89 NW3       30.03R
$$

NEZ044-045-051>053-067-201300-
OMAHA AREA

CITY           SKY/WX    TMP DP  RH WIND       PRES   REMARKS
OMAHA EPPLEY   CLEAR     46  43  89 N8        30.05R
6HR MIN TEMP:  46; 6HR MAX TEMP:  56;

BLAIR          CLEAR     50  44  79 N9        30.03R
FREMONT        CLEAR     43  40  90 W5        30.05R
MILLARD        CLEAR     46  44  91 CALM      30.03R
OFFUTT AFB     CLEAR     44  44 100 NW6       30.02R
PLATTSMOUTH    CLEAR     47  44  89 NW3       30.03R
WAHOO          FAIR      47  40  76 NW7       30.05R
$$


USA.gov is the U.S. government's official web portal to all federal, state and local government web resources and services.